Location: Nied?wied?
(53.3665°N, 14.8184°E)
Time: 18:31:57
(UTC+00:00)

ISS - Pass Details

Date: 21 May 2021
Orbit: 417 x 422 km, 51.6° (Epoch: 14 June)

Event Time Altitude Azimuth Distance (km) Brightness Sun altitude
Rises 20:07:43 0° 260° (W) 2,364 0.5 -7.7°
Reaches altitude 10° 20:09:49 10° 257° (WSW) 1,502 -0.6 -7.9°
Maximum altitude 20:13:09 65° 176° (S) 467 -3.8 -8.2°
Drops below altitude 10° 20:16:30 10° 94° (E) 1,506 -1.3 -8.5°
Enters shadow 20:18:07 - 92° (E) 2,166 -0.5 -8.7°
